{"data":{"norad_id":49495,"intl_designator":"2021-109A","name":"GAOFEN-3 02","alt_names":[],"object_type":"PAYLOAD","status":"ACTIVE","operator":null,"country":"PRC","launch_date":"2021-11-22","launch_site_code":"JSC","launch_vehicle":null,"mission":null,"orbit_class":"UNKNOWN","rcs_meters":null,"size_class":null,"mass_kg":null,"dimensions":null,"purposes":[],"wikipedia_slug":null,"has_3d_model":false,"image_url":null,"decayed_at":null,"tle_current":{"epoch":"2026-05-25T03:42:00.345024Z","epoch_age_seconds":54947,"freshness":"FRESH","line1":"1 49495U 21109A   26145.15417066  .00000057  00000+0  30530-4 0  9998","line2":"2 49495  98.4098 153.5787 0003913  67.8473 292.3131 14.42213501236991","mean_motion":14.42213501,"eccentricity":0.0003913,"inclination_deg":98.4098,"raan_deg":153.5787,"arg_perigee_deg":67.8473,"mean_anomaly_deg":292.3131,"bstar":3.053e-5,"rev_number":23699,"period_min":99.84652057421,"perigee_km":748.40470107499,"apogee_km":753.98411583525,"semimajor_km":7129.3314084551,"source":"CELESTRAK","updated_at":"2026-05-25T13:37:57.236985Z"}}}